File timestamp: Sat Aug  6 00:00:00 2016, Internal temp: 44.3267822265625
1470441601, 0.0319212824106216, -0.00206072232685983, 0.0157483238726854, 32909, 32777, 23387, 6.78625440597534
1470441602, 0.0248981919139624, -0.00468184752389789, 0.0151562206447124, 33043, 32708, 23465, NaN
1470441603, 0.00653851311653852, -0.00473362067714334, 0.0138385342434049, 33016, 32746, 23336, NaN
1470441604, -0.00215797056443989, -0.00636123353615403, 0.0115601606667042, 32901, 32848, 23411, NaN
1470441605, -0.00148011546116322, -0.00755714671686292, 0.00944402255117893, 33138, 32662, 23372, NaN
1470441606, 0.0129177160561085, -0.00849896110594273, 0.00861557573080063, 33098, 32661, 23353, NaN
1470441607, 0.0256221536546946, -0.00821732170879841, 0.00941074825823307, 33029, 32720, 23434, NaN
1470441608, 0.0206046830862761, -0.00675757229328156, 0.0102023119106889, 32968, 32777, 23322, NaN
1470441609, 0.0169143080711365, -0.0060158777050674, 0.01168701518327, 32988, 32753, 23381, NaN
1470441610, 0.0196731146425009, -0.00665308907628059, 0.0136244418099523, 32974, 32784, 23440, NaN
1470441611, 0.0127389058470726, -0.00618945155292749, 0.0152811463922262, 32888, 32800, 23405, NaN
1470441612, -0.00521276518702507, -0.00424087280407548, 0.0160912908613682, 32996, 32771, 23459, NaN
1470441612, -0.00380548206157982, -0.00291520496830344, 0.0160423088818789, 32847, 32871, 23241, NaN
1470441613.008, 0.0181505586951971, -0.00434989202767611, 0.0163233485072851, 32824, 32838, 23385, NaN
1470441614.008, 0.0166541412472725, -0.00590180046856403, 0.0170196387916803, 32955, 32771, 23443, NaN
1470441615.008, -0.00787421222776175, -0.00554703967645764, 0.0171154569834471, 33045, 32701, 23384, NaN
1470441616.008, -0.0198570620268583, -0.00518846185877919, 0.0171194076538086, 32846, 32885, 23383, NaN
1470441616.008, -0.0163688343018293, -0.00508865667507052, 0.0173225291073322, 32972, 32760, 23430, NaN
1470441617.016, -0.0058819716796279, -0.00456630066037178, 0.0186757445335388, 32961, 32781, 23320, NaN
1470441618.016, 0.0085008917376399, -0.00264361477456987, 0.0193651467561722, 32833, 32857, 23445, NaN
1470441619.016, -0.00366636598482728, -0.001525679952465, 0.0188022740185261, 32949, 32802, 23403, NaN
1470441620.016, -0.0106189269572496, -0.00232830690219998, 0.0186470225453377, 32954, 32769, 23375, NaN
1470441620.016, -0.00607950100675225, -0.00286299525760114, 0.0196259766817093, 32819, 32843, 23452, NaN
1470441621.022, -0.0168534684926271, -0.00301389209926128, 0.0190178286284208, 32926, 32796, 23406, NaN
1470441622.022, -0.0346711836755276, -0.00320119666866958, 0.0173283293843269, 33063, 32712, 23289, NaN
1470441623.022, -0.0249430444091558, -0.0037664424162358, 0.0164748970419168, 32992, 32767, 23416, NaN
1470441624.022, 0.00450212880969048, -0.00407698890194297, 0.0163266956806183, 32911, 32803, 23403, NaN
1470441624.024, 0.0196644403040409, -0.0047865267843008, 0.0147251933813095, 32981, 32765, 23400, NaN
1470441625.028, 0.0100634275004268, -0.00509579945355654, 0.0130007723346353, 32998, 32777, 23431, NaN
1470441626.028, -0.00373764312826097, -0.00521970866248012, 0.012574921362102, 32889, 32830, 23324, NaN
1470441627.028, -0.00532644707709551, -0.00495007215067744, 0.0119536928832531, 33042, 32723, 23343, NaN
1470441628.028, 0.00214492832310498, -0.00440385611727834, 0.0124986674636602, 33097, 32701, 23407, NaN
1470441628.028, 0.00603078212589025, -0.00493740942329168, 0.0128163844347, 33022, 32757, 23380, NaN
1470441629.03, 0.000116328825242817, -0.00444310763850808, 0.0145568093284965, 32929, 32795, 23430, NaN
1470441630.03, -0.00831182766705751, -0.00367523683235049, 0.015662981197238, 33056, 32722, 23434, NaN
1470441631.03, -0.0115550756454468, -0.00312089314684272, 0.0165285915136337, 32857, 32823, 23319, NaN
1470441632.03, -0.00970604363828897, -0.00131084525492042, 0.0183226838707924, 32863, 32831, 23367, NaN
1470441633.03, -0.0176971070468426, -0.00123558344785124, 0.0188226234167814, 33030, 32776, 23437, NaN
1470441634.03, -0.0190405584871769, -0.000454889261163771, 0.0192610248923302, 32928, 32779, 23358, NaN
1470441635.03, -0.0186636690050364, 0.000629559392109513, 0.019593758508563, 32823, 32906, 23433, NaN
1470441636.038, -0.0206309836357832, 0.000441380252595991, 0.0195920541882515, 33041, 32753, 23461, NaN
1470441637.038, -0.0298651847988367, 9.51116162468679e-05, 0.0183269176632166, 32993, 32754, 23291, NaN
1470441638.038, -0.0151429818943143, -0.0006531827384606, 0.0175352040678263, 32873, 32853, 23342, NaN
1470441639.038, 0.00822589918971062, -0.00176390341948718, 0.0170049052685499, 33018, 32741, 23486, NaN
1470441640.038, -0.00280735362321138, -0.0011157306144014, 0.0152538036927581, 32983, 32754, 23367, NaN
1470441641.038, -0.0103512452915311, -0.00132259854581207, 0.0147331291809678, 32919, 32846, 23431, NaN
1470441642.038, 0.00831609964370728, -0.000539926870260388, 0.0150077939033508, 33120, 32687, 23450, NaN
1470441643.038, 0.0188149008899927, -0.000767767545767128, 0.0154312811791897, 32871, 32811, 23313, NaN
1470441644.038, 0.0184270534664392, -0.000279717292869464, 0.0155190816149116, 32914, 32801, 23313, NaN
1470441645.038, 0.0351161733269691, 9.18750592973083e-05, 0.0162692125886679, 33036, 32781, 23427, NaN
1470441646.038, 0.047595988959074, -8.8764824113241e-07, 0.0159105397760868, 32817, 32846, 23425, NaN
1470441647.038, 0.0376054756343365, 0.000154562629177235, 0.0144527098163962, 32962, 32758, 23373, NaN
1470441648.038, 0.0362702049314976, 0.000223141338210553, 0.0126744620501995, 33005, 32776, 23439, NaN
1470441649.038, 0.0254485961049795, -0.000313924596412107, 0.0107428710907698, 32867, 32854, 23319, NaN
1470441650.038, 0.0180133599787951, -0.00157678662799299, 0.00958857964724302, 33119, 32698, 23363, NaN
1470441651.038, 0.0177087802439928, -0.00229068356566131, 0.00885585509240627, 33053, 32738, 23422, NaN
1470441652.038, 0.0198723115026951, -0.00178666692227125, 0.00778413657099009, 32903, 32782, 23351, NaN
1470441653.038, 0.0136788757517934, -0.000910280679818243, 0.00781888980418444, 32932, 32804, 23430, NaN
1470441654.038, 0.00561480224132538, 0.000164488621521741, 0.00793641153723001, 33055, 32766, 23409, NaN
1470441655.038, 0.0136820962652564, 0.000685380073264241, 0.00846547074615955, 32995, 32787, 23339, NaN
1470441656.038, 0.0282359458506107, 0.000367447035387158, 0.0104151358827949, 32887, 32811, 23464, 6.42073822021484
1470441657.038, 0.0143456868827343, 0.000788973527960479, 0.0114506119862199, 32907, 32781, 23376, NaN
1470441658.038, -0.0168394464999437, 0.00178729556500912, 0.0113441590219736, 32999, 32728, 23343, NaN
1470441659.038, -0.0227296687662601, 0.0026933797635138, 0.0100716222077608, 33113, 32694, 23413, NaN
1470441660.038, -0.0161455199122429, 0.00133887969423085, 0.00822463165968657, 33016, 32735, 23344, NaN
1470441661.038, -0.0123826786875725, 0.00135792477522045, 0.00722362985834479, 32845, 32841, 23409, NaN
1470441662.038, -0.0193416960537434, 0.00077302020508796, 0.00706412177532911, 32959, 32783, 23442, NaN
1470441663.038, -0.020363250747323, 0.000249817880103365, 0.00642997631803155, 33051, 32697, 23295, NaN
1470441664.038, -0.00891875382512808, -0.000649511173833162, 0.00595698831602931, 32881, 32818, 23387, NaN
1470441665.048, 0.00423975987359881, 9.86245868261904e-05, 0.00783201493322849, 32831, 32827, 23376, NaN
1470441666.048, 0.00079327734420076, 0.00207232893444598, 0.0090384790673852, 33027, 32714, 23383, NaN
1470441666.048, 0.000718910072464496, 0.00319739081896842, 0.00969380233436823, 33010, 32771, 23505, NaN
1470441667.056, 0.00365970213897526, 0.0029930432792753, 0.0104092322289944, 32796, 32871, 23383, NaN
1470441668.056, -0.00316136097535491, 0.00339691154658794, 0.010294240899384, 32881, 32810, 23402, NaN
1470441669.056, -0.0131281474605203, 0.00344540900550783, 0.0109442686662078, 32957, 32769, 23480, NaN
1470441670.056, -0.0248457677662373, 0.00275422702543437, 0.0111772622913122, 32912, 32800, 23363, NaN
1470441670.056, -0.0395645797252655, 0.00283030956052244, 0.0108105214312673, 32822, 32832, 23418, NaN
1470441671.062, -0.0353352427482605, 0.00220002816058695, 0.0114558059722185, 32995, 32749, 23438, NaN
1470441672.062, -0.0337217189371586, 0.00157716136891395, 0.0116337286308408, 32799, 32862, 23336, NaN
1470441673.062, -0.0411968342959881, 0.000499778776429594, 0.00983530096709728, 32962, 32764, 23334, NaN
1470441674.062, -0.0170954689383507, -0.000639734091237187, 0.00849772244691849, 32922, 32790, 23416, NaN
1470441674.062, 0.00564342783764005, -0.00253284233622253, 0.00767765333876014, 33022, 32722, 23320, NaN
1470441675.066, 0.00751910358667374, -0.00320292101241648, 0.00665056984871626, 32901, 32801, 23415, NaN
1470441676.066, -0.00148742378223687, -0.00240861065685749, 0.00645236391574144, 33104, 32699, 23439, NaN
1470441677.066, -0.016423974186182, -0.00261373282410204, 0.00573910074308515, 33021, 32726, 23321, NaN
1470441678.066, -0.00516636203974485, -0.00316700176335871, 0.00597021915018559, 32888, 32820, 23420, NaN
1470441678.066, 0.0191790759563446, -0.00321562984026968, 0.00623390451073647, 32835, 32799, 23332, NaN
1470441679.07, 0.0240082144737244, -0.00312470598146319, 0.0061967303045094, 33050, 32717, 23391, NaN
1470441680.07, 0.0136006576940417, -0.00329534243792295, 0.00513838045299053, 33051, 32737, 23444, NaN
1470441681.07, 0.00200128648430109, -0.00401916773989797, 0.00671158032491803, 32887, 32790, 23338, NaN
1470441682.07, -0.00633076904341578, -0.00330303143709898, 0.00624519539996982, 32868, 32829, 23435, NaN
1470441683.07, 0.000138239862280898, -0.0012853181688115, 0.00538970157504082, 33076, 32717, 23401, NaN
1470441684.07, 0.0286963321268559, -0.00109281565528363, 0.00638322113081813, 33072, 32690, 23375, NaN
1470441685.07, 0.0354450903832912, -0.00124254683032632, 0.00656200293451548, 32870, 32799, 23420, NaN
1470441686.07, 0.01679303124547, -0.000641744525637478, 0.00739379320293665, 32840, 32849, 23364, NaN
1470441687.07, 0.012202893383801, 0.00132916122674942, 0.00885177124291658, 32972, 32766, 23368, NaN
1470441688.07, 0.0120438141748309, 0.00308452639728785, 0.0117065478116274, 32784, 32864, 23452, NaN
1470441689.078, 0.0181706845760345, 0.00443138182163239, 0.0148174082860351, 32843, 32844, 23443, NaN
1470441690.078, 0.0219054538756609, 0.00483060954138637, 0.0171463005244732, 32910, 32774, 23364, NaN
1470441691.078, 0.00671922322362661, 0.0044707446359098, 0.0161032490432262, 32783, 32879, 23405, NaN
1470441692.078, -0.00668821111321449, 0.00416553532704711, 0.0146472007036209, 32990, 32768, 23368, NaN
1470441692.078, -0.00767735857516527, 0.00227573933079839, 0.0119310412555933, 32789, 32859, 23363, NaN
1470441693.086, -0.0175625570118427, 0.000350268295733258, 0.00828577764332294, 32963, 32758, 23425, NaN
1470441694.086, -0.0256391111761332, -0.00168143468908966, 0.0046779322437942, 32998, 32755, 23477, NaN
1470441695.086, -0.0142372250556946, -0.00322574470192194, 0.00168695964384824, 32900, 32805, 23365, NaN
1470441696.086, 0.00713270017877221, -0.00314279994927347, 0.00164873129688203, 33080, 32698, 23347, NaN
1470441697.086, 0.0264677181839943, -0.00265330215916038, 0.00174744287505746, 33119, 32675, 23431, NaN
1470441698.086, 0.0298613645136356, -0.00288224453106523, 0.00364148383960128, 33000, 32758, 23388, NaN
1470441699.086, 0.0290633924305439, -0.00164476630743593, 0.00564703950658441, 32849, 32867, 23464, NaN
1470441700.086, 0.0235976707190275, 0.0005092061473988, 0.00927002355456352, 32945, 32784, 23495, NaN
1470441701.086, -0.00220023025758564, 0.00316680734977126, 0.0117133930325508, 32881, 32820, 23302, NaN
1470441702.086, -0.0131166996434331, 0.0046537066809833, 0.013289300724864, 32803, 32875, 23361, NaN
1470441703.086, -0.00383070367388427, 0.00448978878557682, 0.0152656426653266, 32923, 32822, 23496, NaN
1470441704.086, -0.00956492684781551, 0.00329634849913418, 0.0145081412047148, 32806, 32905, 23377, NaN
1470441705.086, -0.0162006802856922, 0.00252982857637107, 0.0147227551788092, 32888, 32807, 23364, NaN
1470441706.086, -0.020075174048543, 0.00214035925455391, 0.0137181477621198, 32873, 32809, 23439, NaN
1470441707.086, -0.0361896157264709, 0.0018609429243952, 0.010646409355104, 32950, 32812, 23347, NaN
1470441708.086, -0.0339534357190132, 0.00105752889066935, 0.00840877927839756, 33047, 32760, 23370, NaN
1470441709.086, -0.00589455105364323, -0.000446897989604622, 0.00809113867580891, 32898, 32841, 23471, NaN
1470441710.086, 0.00852491986006498, -0.0012939590960741, 0.00920059345662594, 32862, 32830, 23462, NaN
1470441711.086, 0.0068603903055191, -0.00151789898518473, 0.00978139881044626, 33046, 32744, 23360, 6.15033102035522
1470441712.086, 0.00333933066576719, -0.00075707130599767, 0.010012068785727, 32908, 32828, 23404, NaN
1470441713.086, -0.00629947334527969, -0.00126279087271541, 0.00940098147839308, 32925, 32794, 23390, NaN
1470441714.086, -0.0183208305388689, -0.00178538542240858, 0.00921538658440113, 32916, 32792, 23365, NaN
1470441715.086, -0.0151518294587731, -0.000952332688029855, 0.00852120202034712, 33055, 32798, 23497, NaN
1470441716.086, -0.0108632566407323, -0.00204819929786026, 0.00649139890447259, 32925, 32796, 23405, NaN
1470441717.094, -0.010624180547893, -0.00379132758826017, 0.00485653290525079, 32909, 32810, 23395, NaN
1470441718.094, 0.00682267779484391, -0.00424248212948442, 0.00442824838683009, 33133, 32703, 23417, NaN
1470441719.094, 0.0089552029967308, -0.00399316335096955, 0.00342268752865493, 33166, 32663, 23418, NaN
1470441720.094, -0.0165050756186247, -0.00338982534594834, 0.00356859876774251, 32963, 32782, 23455, NaN
1470441720.094, -0.00981073454022408, -0.00204654899425805, 0.00615873467177153, 32886, 32832, 23308, NaN
1470441721.102, 0.0317459404468536, -0.000836849154438823, 0.00887343101203442, 32884, 32847, 23485, NaN
1470441722.102, 0.0477468967437744, -0.000282290333416313, 0.0115206390619278, 33094, 32701, 23503, NaN
1470441723.102, 0.0237994510680437, 0.000362997612683102, 0.0133781814947724, 33004, 32735, 23309, NaN
1470441724.102, 0.0110421171411872, 0.00255820993334055, 0.0141944168135524, 32980, 32826, 23472, NaN
1470441724.102, 0.00904651079326868, 0.00271740136668086, 0.0143211875110865, 32811, 32897, 23416, NaN
1470441725.108, -0.0191365052014589, 0.0023322373162955, 0.0142398225143552, 32955, 32795, 23472, NaN
1470441726.108, -0.0378341153264046, 0.00244797859340906, 0.0128245195373893, 33092, 32727, 23437, NaN
1470441727.108, -0.025132741779089, 0.00187436165288091, 0.0119118224829435, 32957, 32791, 23369, NaN
1470441728.108, -0.0245695933699608, 0.00158598821144551, 0.0118541214615107, 32911, 32829, 23396, NaN
1470441729.108, -0.0254617352038622, 0.0010395844001323, 0.0109200477600098, 33049, 32755, 23400, NaN
1470441730.108, -0.0016051372513175, 5.68147406738717e-05, 0.01146125420928, 33011, 32760, 23411, NaN
1470441731.108, 0.0137863187119365, 0.000602731190156192, 0.0122253401204944, 32836, 32880, 23493, NaN
1470441731.468, 0.014706646092236, 0.00112294824793935, 0.0127336261793971, 32942, 32795, 23439, NaN
1470441732.468, 0.00655687181279063, 0.00320163904689252, 0.0139785259962082, 33084, 32718, 23503, NaN
1470441733.468, -0.00397592270746827, 0.00379539025016129, 0.0147861940786242, 33019, 32736, 23285, NaN
1470441734.468, 0.0113555109128356, 0.00464126141741872, 0.0155767975375056, 32746, 32921, 23422, NaN
1470441735.468, 0.0270990058779716, 0.00460096402093768, 0.0164649803191423, 32957, 32778, 23460, NaN
1470441736.468, 0.00854387227445841, 0.00509467534720898, 0.016268715262413, 32956, 32777, 23380, NaN
1470441737.468, -0.0139632970094681, 0.00582906510680914, 0.0158675611019135, 32869, 32875, 23406, NaN
1470441738.468, -0.00401460332795978, 0.00479910802096128, 0.0147500662133098, 33019, 32766, 23411, NaN
1470441739.468, 0.00925375148653984, 0.00378737482242286, 0.0150734260678291, 32989, 32752, 23343, NaN
1470441740.468, 0.007304014172405, 0.00348861492238939, 0.0143123604357243, 32878, 32819, 23426, NaN
1470441741.468, 0.00835688877850771, 0.00251069269143045, 0.0136524913832545, 33035, 32772, 23510, NaN
1470441742.468, 0.00536442501470447, 0.00178581150248647, 0.0122925117611885, 32872, 32834, 23360, NaN
1470441743.468, -0.00653130002319813, 0.00160428928211331, 0.0112084429711103, 32956, 32796, 23389, NaN
1470441744.476, 0.00662239547818899, 0.00154702132567763, 0.0111980708315969, 33026, 32763, 23362, NaN
1470441745.476, 0.0223929174244404, 0.0010645316215232, 0.0104427980259061, 32996, 32768, 23371, NaN
1470441746.476, 0.0288711097091436, -0.000145645186421461, 0.00981003884226084, 33017, 32738, 23391, NaN
1470441747.476, 0.0409275963902473, -0.000373984250472859, 0.0102173127233982, 32833, 32837, 23444, NaN
1470441747.476, 0.0233433600515127, -0.00124215299729258, 0.00937132816761732, 32944, 32767, 23477, NaN
1470441748.484, -0.00981164537370205, -0.000426946702646092, 0.00809831917285919, 33167, 32711, 23445, NaN
1470441749.484, -0.00528713362291455, -0.00067241006763652, 0.00801995489746332, 33001, 32744, 23252, NaN
1470441750.484, 0.0205762963742018, -6.83578764437698e-05, 0.0099922576919198, 32839, 32858, 23475, NaN
1470441751.484, 0.0213624257594347, 0.000853389326948673, 0.0111797908321023, 32975, 32770, 23465, NaN
1470441751.484, 0.00300021003931761, 0.00248187291435897, 0.0123439850285649, 33023, 32726, 23374, NaN
1470441752.49, 0.0155126359313726, 0.00323052192106843, 0.013116997666657, 32831, 32872, 23406, NaN
1470441753.49, 0.0324874743819237, 0.00282397912815213, 0.0144922286272049, 32858, 32831, 23373, NaN
1470441754.49, 0.0197784099727869, 0.00269255507737398, 0.0144521491602063, 32948, 32757, 23376, NaN
1470441755.49, -0.0013581559760496, 0.00175313628278673, 0.0133582782000303, 32885, 32830, 23462, NaN
1470441756.49, -0.0221772715449333, 0.00201384443789721, 0.0124078299850225, 32850, 32865, 23427, NaN
1470441757.49, -0.0439039766788483, 0.000772830797359347, 0.0124022522941232, 33068, 32667, 23399, NaN
1470441758.49, -0.0566818937659264, 0.00152571871876717, 0.0129782129079103, 32829, 32874, 23410, NaN
1470441759.49, -0.0546224527060986, 0.00268445955589414, 0.0135893989354372, 32930, 32799, 23325, NaN
1470441760.49, -0.029400372877717, 0.00186794006731361, 0.0132798664271832, 32906, 32801, 23356, NaN
1470441761.49, -0.00552626559510827, 0.00175074848812073, 0.0139226522296667, 32705, 32922, 23462, NaN
1470441762.49, -0.00961346924304962, 0.00150740297976881, 0.0136251822113991, 32979, 32766, 23456, NaN
1470441763.49, -0.0264813620597124, 0.00209077796898782, 0.0117227667942643, 32972, 32798, 23361, NaN
1470441764.49, -0.0267767067998648, -0.000100066252343822, 0.00834661722183228, 32881, 32837, 23369, NaN
1470441765.49, -0.00859884545207024, -0.00178241438698024, 0.00663592759519815, 33026, 32783, 23376, NaN
1470441766.49, -0.0029582332354039, -0.00301856244914234, 0.00500761019065976, 33130, 32637, 23423, NaN
1470441767.49, -0.0220894031226635, -0.00273967441171408, 0.00369699392467737, 33008, 32763, 23508, 7.90167808532715
1470441768.49, -0.0279761180281639, -0.00242463918402791, 0.00384783721528947, 33011, 32742, 23319, NaN
1470441769.49, -0.0158460047096014, -0.00291131669655442, 0.00396139128133655, 32897, 32804, 23383, NaN
1470441770.5, 0.0203550271689892, -0.00349637144245207, 0.00716361962258816, 32940, 32792, 23397, NaN
1470441771.5, 0.0114662544801831, -0.00411542225629091, 0.0073510711081326, 33145, 32674, 23481, NaN
1470441772.5, -0.0114039657637477, -0.0038672077935189, 0.00725892698392272, 33086, 32678, 23291, NaN
1470441773.5, -0.0172613263130188, -0.00303416862152517, 0.00696992035955191, 32837, 32901, 23442, NaN
1470441773.5, -0.00960747897624969, -0.00394994346424937, 0.00704790838062763, 32939, 32813, 23369, NaN
1470441774.508, 0.00184591289144009, -0.00417779805138707, 0.00763984676450491, 33004, 32725, 23363, NaN
1470441775.508, 0.0241108164191246, -0.0034047975204885, 0.0103225400671363, 32984, 32772, 23445, NaN
1470441776.508, 0.0384245216846466, -0.00298663601279259, 0.0119397146627307, 32863, 32842, 23290, NaN
1470441777.508, 0.0412239246070385, -0.00247180904261768, 0.0128093678504229, 32967, 32774, 23396, NaN
1470441778.508, 0.0328564532101154, -0.00285910116508603, 0.0147227728739381, 33021, 32734, 23486, NaN
1470441779.508, 0.028192849829793, -0.00071461487095803, 0.0155072724446654, 32633, 32986, 23409, NaN
1470441780.508, 0.0213205143809319, 0.000190538601600565, 0.0163733996450901, 32845, 32858, 23411, NaN
1470441781.508, 0.0107159046456218, -0.000255997700151056, 0.0152822844684124, 32981, 32766, 23426, NaN
1470441782.508, 0.000696583068929613, -0.000792361563071609, 0.0142626753076911, 32855, 32846, 23374, NaN
1470441783.508, -0.0111779682338238, -0.00275758327916265, 0.0129539342597127, 32894, 32800, 23442, NaN
1470441784.508, -0.0382030084729195, -0.00259286141954362, 0.0110685219988227, 33000, 32762, 23431, NaN
1470441785.508, -0.0420667715370655, -0.00250690709799528, 0.0100768180564046, 32804, 32882, 23244, NaN
1470441786.508, -0.00373230339027941, -0.00314455199986696, 0.00965040549635887, 32970, 32770, 23394, NaN
1470441787.508, 0.0296049136668444, -0.00277176010422409, 0.00957992766052485, 33036, 32733, 23454, NaN
1470441788.508, 0.0379289239645004, -0.0021908269263804, 0.00931291747838259, 32892, 32828, 23346, NaN
1470441789.508, 0.0370699726045132, -0.000922970415558666, 0.00899997167289257, 32904, 32799, 23385, NaN
1470441790.508, 0.0269831977784634, -0.00106337224133313, 0.00967103987932205, 33024, 32742, 23413, NaN
1470441791.508, 0.00487150112167001, -0.000330125651089475, 0.00977170001715422, 32788, 32873, 23317, NaN
1470441792.508, -0.00453452579677105, -0.000187307945452631, 0.0106380702927709, 32997, 32762, 23339, NaN
1470441793.508, 0.00241823424585164, -0.000492637511342764, 0.0113484729081392, 33071, 32720, 23465, NaN
1470441794.508, 0.00760633125901222, -0.000225391704589128, 0.0105892634019256, 32813, 32857, 23399, NaN
1470441795.508, 0.00536901084706187, -0.00180255505256355, 0.0107227703556418, 32990, 32744, 23386, NaN
1470441796.516, -0.00772272050380707, -0.00252143107354641, 0.00982260517776012, 32978, 32768, 23424, NaN
1470441797.516, -0.0139984330162406, -0.00212143384851515, 0.00828678719699383, 32826, 32839, 23291, NaN
1470441797.516, -0.00632335804402828, -0.00144810683559626, 0.00687984609976411, 33059, 32716, 23339, NaN
1470441798.524, -0.000886428751982749, -0.00226802541874349, 0.00667805457487702, 33035, 32742, 23447, NaN
1470441799.524, 0.00404680380597711, -0.00262470543384552, 0.00752412108704448, 32920, 32800, 23374, NaN
1470441800.524, 0.0109590031206608, -0.00191103608813137, 0.0077478694729507, 32918, 32829, 23412, NaN
1470441801.524, 0.0210648365318775, -0.00199417513795197, 0.00930631253868341, 33134, 32673, 23410, NaN
1470441801.524, 0.0148665523156524, -0.001991220517084, 0.0104271546006203, 33008, 32718, 23318, NaN
1470441802.53, -0.00667559122666717, -0.000850734882988036, 0.0105679156258702, 32775, 32900, 23371, NaN
1470441803.53, -0.017483638599515, -0.00069072563201189, 0.0107587156817317, 32896, 32817, 23311, NaN
1470441804.53, -0.0209569334983826, -0.0013771242229268, 0.00962034054100513, 32963, 32743, 23394, NaN
1470441805.53, -0.0183366872370243, -0.00083540880586952, 0.00844966433942318, 33091, 32710, 23412, NaN
1470441805.53, -0.0107312425971031, -0.000227114869630896, 0.00817667320370674, 32977, 32737, 23354, NaN
1470441806.536, -0.0214860290288925, -0.000859965395648032, 0.00701692746952176, 32867, 32833, 23373, NaN
1470441807.536, -0.0372103750705719, -0.000115847789857071, 0.00762108340859413, 33133, 32672, 23353, NaN
1470441808.536, -0.0359924472868443, 0.000377897260477766, 0.0108094932511449, 32972, 32743, 23362, NaN
1470441809.536, -0.0227493047714233, 0.00283229909837246, 0.01299590151757, 32819, 32849, 23411, NaN
1470441809.536, -0.00646074814721942, 0.00429272558540106, 0.0153000243008137, 32992, 32773, 23461, NaN
1470441810.54, 0.0127465277910233, 0.00508122472092509, 0.0175384022295475, 32948, 32804, 23355, NaN